This is the latest recevied weather packets stored in our database for station/object KK7ISX. If no packets are shown the sender has not sent any weather packets the latest 1 day(s).
| Time | Temp. | Humidity | Pressure | Rain* | Wind** | Luminosity | Snow |
|---|---|---|---|---|---|---|---|
| 1777973470 | 15° C | 51% | 1005.8 hPa | 0 mm | 3.58 m/s, 306° | 0 W/m² | - |
| 1777973167 | 15° C | 51% | 1005.7 hPa | 0 mm | 1.34 m/s, 299° | 0 W/m² | - |
| 1777972866 | 15° C | 51% | 1005.5 hPa | 0 mm | 0.45 m/s, 239° | 0 W/m² | - |
| 1777972562 | 15° C | 51% | 1005.6 hPa | 0 mm | 0.89 m/s, 225° | 0 W/m² | - |
| 1777972260 | 15.56° C | 51% | 1005.5 hPa | 0 mm | 0.45 m/s, 246° | 0 W/m² | - |
| 1777971958 | 15.56° C | 51% | 1005.3 hPa | 0 mm | 1.79 m/s, 294° | 0 W/m² | - |
| 1777971655 | 15.56° C | 51% | 1005.1 hPa | 0 mm | 2.68 m/s, 298° | 0 W/m² | - |
| 1777971353 | 15.56° C | 50% | 1005.1 hPa | 0 mm | 2.68 m/s, 291° | 0 W/m² | - |
| 1777971051 | 15.56° C | 50% | 1005.1 hPa | 0 mm | 2.24 m/s, 301° | 0 W/m² | - |
| 1777970749 | 15.56° C | 51% | 1005.2 hPa | 0 mm | 1.79 m/s, 294° | 0 W/m² | - |
| 1777970447 | 15.56° C | 50% | 1005.1 hPa | 0 mm | 2.68 m/s, 280° | 0 W/m² | - |
| 1777970143 | 15.56° C | 50% | 1005.2 hPa | 0 mm | 2.24 m/s, 288° | 0 W/m² | - |
| 1777969840 | 16.11° C | 50% | 1005 hPa | 0 mm | 1.79 m/s, 299° | 0 W/m² | - |
| 1777969536 | 15.56° C | 50% | 1004.8 hPa | 0 mm | 2.24 m/s, 293° | 0 W/m² | - |
| 1777969233 | 15.56° C | 51% | 1005 hPa | 0 mm | 3.13 m/s, 264° | 0 W/m² | - |
| 1777968929 | 15.56° C | 51% | 1004.7 hPa | 0 mm | 2.68 m/s, 313° | 0 W/m² | - |
| 1777968627 | 15.56° C | 51% | 1005 hPa | 0 mm | 2.24 m/s, 309° | 0 W/m² | - |
| 1777968322 | 15.56° C | 51% | 1004.8 hPa | 0 mm | 2.24 m/s, 307° | 0 W/m² | - |
| 1777968020 | 15.56° C | 51% | 1004.8 hPa | 0 mm | 2.24 m/s, 291° | 0 W/m² | - |
| 1777967715 | 15.56° C | 51% | 1004.7 hPa | 0 mm | 2.24 m/s, 268° | 0 W/m² | - |
| 1777967412 | 15.56° C | 51% | 1004.8 hPa | 0 mm | 2.24 m/s, 292° | 0 W/m² | - |
| 1777967110 | 16.11° C | 50% | 1004.7 hPa | 0 mm | 2.24 m/s, 275° | 0 W/m² | - |
| 1777966807 | 16.67° C | 49% | 1004.7 hPa | 0 mm | 3.13 m/s, 303° | 0 W/m² | - |
| 1777966504 | 16.67° C | 48% | 1004.8 hPa | 0 mm | 3.58 m/s, 304° | 0 W/m² | - |
| 1777966202 | 16.67° C | 48% | 1004.7 hPa | 0 mm | 2.68 m/s, 325° | 0 W/m² | - |
* Rain latest hour (hover to see other rain measurements)
** Current wind speed in m/s (hover to see current wind gust speed)